KAZSAT-3

Last updated on Thu Oct 30 2025 00:02:49 GMT+0000 (Coordinated Universal Time)

1 39728U 14023B 25302.48149492 .00000070 00000+0 00000+0 0 9997 2 39728 0.0226 344.4676 0000382 311.4256 334.0383 1.00271504 40143
UTC large
Height (km)
Speed (km/s)
/
Latitude / Longitude
Inclination (degrees)
Orbital Period (minutes)
Azimuth
Elevation
Range (km)
Doppler Factor

Next 0 passes for location: London (51.5072 / 0.1276)

Sorry there are no passes over London.